カタログに戻る

CZ-6A DEB

運用中SSO
NORAD 56273·DEBRIS·🇨🇳 China

打ち上げ Nov 11, 2022 から Taiyuan Satellite Launch Center

Loading…

次のパス (今後24時間)

TLE

最新Source: Space-Track

元期: Sep 14, 2026, 14:22 UTC

1 56273U 22151ACR 26257.59877537  .00002713  00000-0  49636-3 0  9991
2 56273  98.4774 304.3140 0122140 349.7473  10.1238 14.62030636188469

AllMySatでCZ-6A DEBをリアルタイム追跡

Download on the App Store